Location: Les Gen�tes
(46.3104°N, 1.5969°E)
Time: 19:12:28
(UTC+00:00)

Cosmos 1726 - Pass Details

Date: 01 June 2020
Orbit: 483 x 498 km, 82.5° (Epoch: 04 July)

Event Time Altitude Azimuth Distance (km) Brightness Sun altitude
Rises 23:01:14 0° 349° (N) 2,589 7.4 -20.5°
Reaches altitude 10° 23:03:21 10° 348° (NNW) 1,703 6.0 -20.6°
Maximum altitude 23:07:05 79° 262° (W) 513 2.0 -20.7°
Enters shadow 23:07:20 73° 214° (SW) 525 2.0 -20.7°
